EW1423 Weather Reports


time (UTC)temp
F
wind
direction
speed
knots
gust
knots
rain 1hr
in
rain 24hr
in
rain mn
in
humidity
%
barometer
mb
20260506033303 49 101 0.9 1.7 0.00 0.39 0.01 100 1007.6
20260506032803 49 111 0.9 1.7 0.00 0.39 0.01 100 1007.6
20260506032305 49 124 0.9 1.7 0.00 0.39 0.01 100 1007.6
20260506031804 49 130 0.9 1.7 0.00 0.39 0.01 100 1007.6
20260506031304 49 130 0.0 0.9 0.00 0.39 0.01 100 1007.6
20260506030804 49 130 0.0 0.9 0.00 0.39 0.01 100 1007.3
20260506030303 49 130 0.9 2.6 0.00 0.39 0.01 100 1007.3
20260506025804 49 130 0.0 1.7 0.00 0.39 0.01 100 1007.3
20260506025305 49 298 0.0 0.9 0.00 0.39 0.01 100 1007.3
20260506024304 49 297 0.0 0.9 0.00 0.39 0.01 100 1007.3
20260506023803 49 297 0.0 2.6 0.00 0.39 0.01 100 1008.1
20260506023304 49 95 0.0 1.7 0.00 0.39 0.01 100 1008.1
20260506022305 49 95 0.0 0.9 0.00 0.39 0.01 100 1008.1
20260506021803 49 95 0.0 0.0 0.00 0.39 0.01 100 1008.1
20260506021304 49 95 0.0 0.9 0.00 0.39 0.01 100 1008.1
20260506020803 50 95 0.0 0.9 0.00 0.39 0.01 100 1008.1
20260506020304 50 95 0.0 0.9 0.00 0.39 0.01 100 1008.1
20260506015804 50 95 0.0 0.9 0.00 0.39 0.01 100 1008.0
20260506015306 50 95 0.9 1.7 0.00 0.39 0.01 100 1008.0
20260506014803 50 70 0.0 0.9 0.00 0.39 0.01 100 1008.0
20260506014304 50 70 0.0 0.9 0.01 0.39 0.01 100 1008.0
20260506013304 49 69 0.0 1.7 0.01 0.39 0.01 100 1008.1
20260506012803 49 56 0.0 1.7 0.01 0.39 0.01 100 1008.1
20260506012307 49 56 0.9 1.7 0.01 0.39 0.01 100 1008.1
20260506011804 49 55 0.9 1.7 0.01 0.39 0.01 100 1008.1
20260506010803 49 11 0.0 0.9 0.01 0.39 0.01 100 1008.1
20260506010303 49 11 0.0 0.9 0.01 0.39 0.01 100 1008.0
20260506005803 49 11 0.0 0.9 0.01 0.39 0.01 100 1008.0
20260506005305 49 11 0.0 1.7 0.01 0.39 0.01 100 1008.0
20260506004803 49 11 0.0 0.9 0.01 0.39 0.01 100 1008.0
20260506003804 49 11 0.0 0.0 0.00 0.39 0.00 100 1008.1
20260506003304 49 11 0.0 0.0 0.00 0.39 0.00 100 1008.2
20260506002804 49 11 0.0 0.9 0.00 0.39 0.00 100 1008.2
20260506002306 49 11 0.0 0.9 0.00 0.39 0.00 100 1008.2
20260506001803 49 11 0.0 0.9 0.00 0.39 0.00 100 1008.2
20260506001303 50 11 0.0 0.0 0.00 0.39 0.00 100 1008.4
20260506000804 49 11 0.0 0.9 0.00 0.39 0.00 100 1008.4
20260506000304 50 11 0.0 0.9 0.00 0.39 0.00 100 1008.8
20260505235803 49 11 0.0 0.0 0.00 0.39 0.00 100 1008.8
20260505235319 50 11 0.0 0.0 0.00 0.39 0.00 100 1008.8
20260505234804 50 11 0.0 0.9 0.00 0.39 0.00 100 1008.8
20260505234304 50 11 0.0 0.9 0.00 0.39 0.00 100 1008.8
20260505233804 50 11 0.0 0.9 0.00 0.39 0.00 100 1008.8
20260505233303 50 11 0.0 0.9 0.00 0.39 0.00 100 1008.8
20260505232803 50 11 0.0 0.9 0.00 0.39 0.00 100 1008.8
20260505232305 50 11 0.0 0.9 0.00 0.39 0.00 100 1008.8
20260505231803 50 11 0.0 0.0 0.00 0.39 0.00 100 1008.8
20260505231303 50 11 0.0 0.9 0.00 0.39 0.00 100 1008.7
20260505230803 50 11 0.0 0.9 0.00 0.39 0.00 100 1008.7
20260505230304 50 11 0.0 0.0 0.00 0.39 0.00 100 1008.7
20260505225804 51 11 0.0 0.9 0.00 0.39 0.00 100 1008.6
20260505225305 51 11 0.0 0.0 0.00 0.39 0.00 100 1008.6
20260505224803 51 11 0.0 0.9 0.00 0.39 0.00 100 1008.6
20260505224304 51 11 0.0 0.0 0.00 0.39 0.00 100 1008.5
20260505223803 51 11 0.0 0.0 0.00 0.39 0.00 100 1008.5
20260505223303 51 11 0.0 0.9 0.00 0.39 0.00 100 1008.5
20260505222305 51 11 0.0 0.0 0.00 0.39 0.00 100 1008.6
20260505221804 51 11 0.0 0.9 0.00 0.39 0.00 100 1008.5
20260505220810 52 11 0.0 0.0 0.00 0.39 0.00 100 1008.5
20260505215803 52 11 0.0 0.0 0.00 0.39 0.39 100 1008.5
20260505215305 52 11 0.0 0.0 0.00 0.39 0.39 99 1008.5
20260505213803 53 11 0.0 1.7 0.00 0.39 0.39 99 1008.6
20260505213304 53 11 0.0 0.9 0.00 0.39 0.39 99 1008.4
20260505212803 54 11 0.0 0.9 0.00 0.39 0.39 98 1008.4
20260505212305 54 11 0.0 0.9 0.00 0.39 0.39 98 1008.4
20260505211303 54 11 0.0 1.7 0.00 0.39 0.39 98 1008.4
20260505210804 54 334 0.0 0.9 0.00 0.39 0.39 98 1008.4
20260505210304 54 334 0.0 0.9 0.00 0.39 0.39 98 1008.4
20260505205803 54 334 0.0 0.9 0.00 0.39 0.39 97 1008.4
20260505205305 54 334 0.9 0.9 0.00 0.39 0.39 97 1008.4
20260505204803 54 334 0.0 1.7 0.00 0.39 0.39 97 1008.4
20260505204303 54 334 0.0 1.7 0.00 0.39 0.39 96 1008.3
20260505203803 55 329 0.9 1.7 0.00 0.39 0.39 96 1008.3
20260505203303 55 333 0.9 1.7 0.00 0.39 0.39 96 1008.3
20260505202804 55 294 1.7 2.6 0.00 0.39 0.39 95 1008.3
20260505202306 55 316 0.9 4.3 0.00 0.39 0.39 96 1008.2
20260505200804 55 80 0.9 4.3 0.00 0.39 0.39 97 1008.1
20260505200303 55 126 0.0 1.7 0.00 0.39 0.39 98 1008.0
20260505195803 55 129 0.0 0.9 0.00 0.39 0.39 98 1008.0
20260505194805 55 129 0.0 0.9 0.00 0.39 0.39 99 1008.0
20260505194304 55 129 0.0 0.9 0.00 0.39 0.39 99 1007.8
20260505193303 56 124 0.0 0.0 0.00 0.39 0.39 99 1007.7
20260505192803 56 124 0.0 0.0 0.00 0.39 0.39 99 1007.7
20260505192305 56 124 0.0 0.9 0.00 0.39 0.39 100 1007.7
20260505191803 56 124 0.0 0.9 0.00 0.39 0.39 99 1007.7
20260505191303 56 124 0.0 0.9 0.00 0.39 0.39 100 1007.7
20260505190804 56 124 0.0 0.9 0.00 0.39 0.39 99 1007.6
20260505190304 56 124 0.0 0.9 0.00 0.39 0.39 99 1007.6
20260505185804 56 124 0.0 0.0 0.00 0.39 0.39 99 1007.5
20260505184804 56 124 0.0 0.0 0.01 0.39 0.39 99 1007.5
20260505184303 56 124 0.0 0.0 0.01 0.39 0.39 98 1007.5
20260505183804 56 124 0.0 0.9 0.02 0.39 0.39 98 1007.5
20260505183304 57 124 0.0 0.9 0.02 0.39 0.39 98 1007.5
20260505182803 57 124 0.0 0.0 0.03 0.39 0.39 98 1007.5
20260505182306 57 124 0.0 0.9 0.04 0.39 0.39 98 1007.5
20260505181803 57 124 0.0 0.9 0.05 0.39 0.39 98 1007.5
20260505181303 57 124 0.0 0.9 0.06 0.39 0.39 98 1007.5
20260505180804 58 124 0.0 0.9 0.06 0.39 0.39 98 1007.4
20260505180304 58 124 0.0 0.9 0.06 0.39 0.39 98 1007.4
20260505175804 58 124 0.0 1.7 0.06 0.39 0.39 98 1007.4
20260505175305 58 124 0.9 1.7 0.06 0.39 0.39 98 1007.5
20260505174803 58 124 0.0 0.9 0.05 0.38 0.38 96 1007.5
20260505174304 58 124 0.0 0.0 0.05 0.38 0.38 96 1007.5
20260505173804 58 124 0.0 0.9 0.04 0.37 0.37 96 1007.5
20260505173303 58 124 0.0 1.7 0.03 0.36 0.36 96 1007.5
20260505172305 59 124 0.0 0.9 0.02 0.35 0.35 92 1007.2
20260505171803 60 124 0.9 1.7 0.01 0.34 0.34 92 1007.2
20260505171304 60 124 0.0 0.9 0.00 0.33 0.33 87 1007.2
20260505170803 60 124 0.0 0.9 0.00 0.33 0.33 86 1007.2
20260505170303 61 124 0.0 0.9 0.00 0.33 0.33 86 1007.2
20260505165804 61 124 0.0 0.9 0.00 0.33 0.33 86 1007.2
20260505165306 62 124 0.9 1.7 0.00 0.33 0.33 87 1007.2
20260505164803 62 106 0.9 1.7 0.00 0.33 0.33 85 1007.2
20260505164303 61 106 0.0 0.9 0.00 0.33 0.33 86 1007.2
20260505163803 61 106 0.0 0.9 0.00 0.33 0.33 87 1007.2
20260505163304 61 106 0.0 0.0 0.00 0.33 0.33 88 1007.3
20260505162804 61 106 0.0 0.9 0.00 0.33 0.33 87 1007.3
20260505162306 62 105 0.0 2.6 0.00 0.33 0.33 84 1007.3
20260505161804 63 106 0.0 2.6 0.00 0.33 0.33 83 1007.3
20260505161303 63 106 0.9 1.7 0.00 0.33 0.33 83 1007.3
20260505160803 63 106 0.9 1.7 0.00 0.33 0.33 85 1007.4
20260505160303 63 107 0.9 1.7 0.00 0.33 0.33 85 1007.5
20260505153303 63 40 0.0 2.6 0.01 0.33 0.33 84 1007.5
20260505152804 63 40 0.0 0.9 0.01 0.33 0.33 85 1007.5
20260505151803 61 40 0.9 1.7 0.01 0.33 0.33 89 1007.8
20260505151304 61 41 0.9 2.6 0.01 0.33 0.33 91 1007.8
20260505150803 60 36 0.9 4.3 0.01 0.33 0.33 90 1007.8
20260505150304 59 314 0.9 1.7 0.01 0.33 0.33 92 1007.8
20260505130304 57 298 3.5 7.0 0.28 0.28 0.28 95 1008.5
20260505124804 60 315 2.6 7.8 0.11 0.11 0.11 90 1007.7
20260505124303 63 293 2.6 10.4 0.02 0.02 0.02 80 1007.7
20260505123804 67 279 2.6 8.7 0.00 0.00 0.00 67 1007.7
20260505122803 69 43 0.9 2.6 0.00 0.00 0.00 63 1007.5
20260505122305 69 57 0.0 2.6 0.00 0.00 0.00 62 1007.5
20260505121304 69 36 0.9 2.6 0.00 0.00 0.00 64 1007.5
20260505120803 69 36 0.9 4.3 0.00 0.00 0.00 63 1007.5
20260505120311 70 18 0.0 4.3 0.00 0.00 0.00 62 1007.7
20260505115804 70 13 0.0 0.9 0.00 0.00 0.00 64 1007.7
20260505115305 70 11 0.0 1.7 0.00 0.00 0.00 62 1007.7
20260505114803 70 11 0.9 1.7 0.00 0.00 0.00 63 1007.7
20260505114304 69 11 0.9 1.7 0.00 0.00 0.00 63 1007.7
20260505113803 69 3 0.9 4.3 0.00 0.00 0.00 65 1007.7
20260505113303 69 357 1.7 4.3 0.00 0.00 0.00 64 1007.7
20260505112804 68 45 0.9 5.2 0.00 0.00 0.00 66 1007.7
20260505111804 69 329 0.9 2.6 0.00 0.00 0.00 64 1007.7
20260505111303 69 11 1.7 2.6 0.00 0.00 0.00 64 1007.7
20260505110804 69 316 1.7 4.3 0.00 0.00 0.00 64 1007.7
20260505110304 70 327 0.9 2.6 0.00 0.00 0.00 63 1007.7
20260505101803 71 273 0.9 4.3 0.00 0.00 0.00 61 1008.0
20260505101304 70 275 0.9 4.3 0.00 0.00 0.00 60 1008.0
20260505100804 70 330 1.7 4.3 0.00 0.00 0.00 59 1008.0
20260505100303 71 36 1.7 4.3 0.00 0.00 0.00 59 1008.0
20260505095804 72 15 1.7 4.3 0.00 0.00 0.00 57 1008.0
20260505095305 73 351 1.7 4.3 0.00 0.00 0.00 58 1008.1
20260505094804 73 5 0.9 4.3 0.00 0.00 0.00 56 1008.1
20260505094304 73 28 1.7 7.0 0.00 0.00 0.00 54 1008.1
20260505093804 75 51 2.6 6.1 0.00 0.00 0.00 54 1008.1
20260505093303 75 45 0.9 1.7 0.00 0.00 0.00 57 1008.4
20260505092803 74 298 1.7 4.3 0.00 0.00 0.00 58 1008.4
20260505092305 73 313 1.7 2.6 0.00 0.00 0.00 59 1008.4
20260505091804 73 162 0.9 4.3 0.00 0.00 0.00 58 1008.5
20260505090303 70 315 1.7 4.3 0.00 0.00 0.00 62 1008.6
20260505085803 70 304 2.6 4.3 0.00 0.00 0.00 62 1008.6
20260505085305 71 305 0.9 2.6 0.00 0.00 0.00 64 1008.7
20260505084304 71 329 0.9 4.3 0.00 0.00 0.00 63 1009.0
20260505083804 71 315 0.9 1.7 0.00 0.00 0.00 63 1009.0
20260505083303 71 315 0.9 1.7 0.00 0.00 0.00 62 1009.0
20260505082803 70 105 0.0 0.9 0.00 0.00 0.00 65 1009.0
20260505082305 69 105 0.9 1.7 0.00 0.00 0.00 64 1009.0
20260505081804 69 105 0.9 1.7 0.00 0.00 0.00 66 1009.0
20260505080804 68 125 0.9 1.7 0.00 0.00 0.00 67 1009.2
20260505080303 65 40 0.0 1.7 0.00 0.00 0.00 71 1009.2
20260505075804 64 40 0.9 1.7 0.00 0.00 0.00 71 1009.2
20260505075304 64 39 1.7 2.6 0.00 0.00 0.00 71 1009.2
20260505074803 65 288 0.0 1.7 0.00 0.00 0.00 70 1009.2
20260505074303 65 281 0.0 1.7 0.00 0.00 0.00 70 1009.3
20260505073803 64 281 0.9 1.7 0.00 0.00 0.00 70 1009.3
20260505073304 65 281 0.0 0.9 0.00 0.00 0.00 69 1009.3
20260505072804 64 281 0.0 1.7 0.00 0.00 0.00 73 1009.3
20260505072305 63 281 0.0 2.6 0.00 0.00 0.00 73 1009.3
20260505070803 63 168 0.9 1.7 0.00 0.00 0.00 73 1009.4
20260505070304 63 168 0.9 1.7 0.00 0.00 0.00 72 1009.5
20260505065804 63 168 0.0 0.9 0.00 0.00 0.00 74 1009.5
20260505065304 62 168 0.9 1.7 0.00 0.00 0.00 73 1009.8
20260505064804 62 168 0.0 1.7 0.00 0.00 0.00 77 1009.8
20260505064304 61 168 0.0 0.9 0.00 0.00 0.00 76 1009.8
20260505063803 61 168 0.0 0.9 0.00 0.00 0.00 77 1009.8
20260505063303 60 168 0.0 0.9 0.00 0.00 0.00 79 1009.8
20260505062803 59 168 0.0 1.7 0.00 0.00 0.00 81 1009.8
20260505062304 59 168 0.0 0.9 0.00 0.00 0.00 81 1009.8
20260505061304 58 168 0.0 0.9 0.00 0.00 0.00 83 1010.0
20260505060803 57 168 0.0 1.7 0.00 0.00 0.00 83 1010.0
20260505060304 57 168 0.0 0.9 0.00 0.00 0.00 84 1009.9
20260505055803 57 168 0.0 0.0 0.00 0.00 0.00 84 1009.9
20260505055304 56 168 0.0 0.0 0.00 0.00 0.00 85 1009.9
20260505054803 56 168 0.0 0.9 0.00 0.00 0.00 85 1010.1
20260505054304 56 168 0.0 0.9 0.00 0.00 0.00 85 1010.1
20260505053803 56 168 0.0 0.9 0.00 0.00 0.00 85 1010.1
20260505053304 56 168 0.0 0.9 0.00 0.00 0.00 86 1010.1
20260505052304 56 168 0.0 0.9 0.00 0.00 0.00 86 1010.1
20260505051804 56 169 0.0 0.9 0.00 0.00 0.00 87 1010.1
20260505051304 56 169 0.0 0.9 0.00 0.00 0.00 87 1010.1
20260505050305 55 204 0.9 1.7 0.00 0.00 0.00 87 1010.2
20260505041304 53 304 0.0 0.0 0.00 0.00 0.00 90 1010.1
20260505040304 53 304 0.0 0.9 0.00 0.00 0.00 91 1010.1
20260505035804 53 304 0.0 0.0 0.00 0.00 0.00 91 1010.1
20260505035304 53 304 0.0 0.9 0.00 0.00 0.00 92 1010.1
20260505034804 53 304 0.0 0.0 0.00 0.00 0.00 91 1010.1
20260505034303 53 304 0.0 0.0 0.00 0.00 0.00 91 1010.1